#timestamp,LO_Frequency,Hit,StdDev 
1643918415.9,286047000.8,N
1643918435.7,286046998.7,N
1643918455.5,286046998.4,N
1643918475.4,286046998.9,N
1643918495.2,286047000.1,N
1643918515.1,286047000.4,N
1643918516.0,286047000.4,N
1643918535.8,286047001.2,N
1643918555.6,286047000.7,N
1643918575.5,286046997.7,N
1643918595.3,286046997.8,N
1643918615.1,286046999.2,N
1643918635.9,286047001.1,N
1643918655.7,286046999.8,N
1643918675.6,286047004.3,N
1643918695.4,286047004.0,N
1643918715.2,286047000.3,N
1643918735.1,286047001.0,N
1643918736.0,286047001.0,N
1643918755.8,286046998.1,N
1643918775.7,286046998.3,N
1643918795.5,286046998.1,N
1643918815.4,286047000.3,N
1643918835.2,286047000.1,N
1643918855.0,286047000.4,N
1643918855.9,286047000.4,N
1643918875.8,286047001.2,N
1643918895.6,286047000.0,N
1643918915.5,286046999.8,N
1643918935.3,286047002.7,N
1643918955.1,286047002.3,N
1643918975.9,286047001.8,N
1643918995.7,286047002.0,N
1643919015.5,286047002.5,N
1643919035.4,286047002.0,N
1643919055.2,286047003.6,N
1643919075.1,286047001.7,N
1643919076.0,286047001.7,N
1643919095.8,286047001.9,N
1643919115.6,286047001.8,N
1643919135.5,286047004.1,N
1643919155.3,286047001.8,N
1643919175.1,286046999.8,N
1643919195.9,286046999.9,N
1643919215.7,286046999.9,N
1643919235.6,286047000.6,N
1643919255.4,286047000.6,N
1643919275.2,286047000.1,N
1643919295.1,286047004.3,N
1643919296.0,286047004.3,N
1643919315.8,286047004.1,N
1643919335.7,286047005.9,Y
1643919355.5,286046999.7,P
1643919375.3,286047002.6,N
1643919395.2,286046999.8,N
1643919415.0,286047001.2,N
1643919415.9,286047001.2,N
1643919435.8,286046999.1,N
1643919455.6,286047000.5,N
1643919475.4,286046998.4,N
1643919495.3,286046998.5,N
1643919515.1,286046999.3,N
1643919535.9,286046996.5,N
1643919555.7,286046996.5,N
1643919575.5,286046998.8,N
1643919595.4,286046997.0,N
1643919615.2,286047001.1,N
1643919635.0,286046998.5,N
1643919636.0,286046998.5,N
1643919655.8,286046998.7,N
1643919675.6,286047000.4,N
1643919695.5,286047000.0,N
1643919715.3,286047002.1,N
1643919735.1,286047002.0,N
1643919755.9,286046999.7,N
1643919775.7,286047002.4,N
1643919795.6,286047000.3,N
1643919815.4,286047000.3,N
1643919835.2,286047000.0,N
1643919855.1,286047001.2,N
1643919856.0,286047001.2,N
1643919875.8,286046998.2,N
1643919895.7,286047000.5,N
1643919915.5,286047000.2,N
1643919935.3,286047001.0,N
1643919955.2,286046998.2,N
1643919975.9,286046998.8,N
1643919995.8,286046998.3,N
1643920015.6,286047000.6,N
1643920035.4,286047000.9,N
1643920055.3,286047000.5,N
1643920075.1,286047001.1,N
1643920095.8,286046998.4,N
1643920115.7,286046999.9,N
1643920135.5,286047001.0,N
1643920155.4,286046998.2,N
1643920175.2,286047001.0,N
1643920195.0,286047000.1,N
1643920195.9,286047000.1,N
1643920215.8,286046999.3,N
1643920235.6,286046999.2,N
1643920255.5,286047001.1,N
1643920275.3,286047000.7,N
1643920295.1,286047001.0,N
1643920315.9,286046998.3,N
1643920335.7,286046999.3,N
1643920355.6,286046999.1,N
1643920375.4,286046999.6,N
1643920395.2,286046997.2,N
1643920415.1,286046996.7,N
1643920416.0,286046996.7,N
1643920435.8,286046996.5,N
1643920485.7,286046998.7,E
1643920495.6,286046998.4,N
1643920515.4,286046998.2,P
1643920535.3,286046998.2,P
1643920555.1,286046998.7,Y
1643920575.9,286047002.1,P
1643920595.7,286047002.0,N
1643920615.5,286047002.5,N
1643920635.4,286047002.0,N
1643920655.2,286047002.6,N
1643920675.0,286047001.8,N
1643920675.9,286047001.8,N
1643920695.8,286047001.7,N
1643920715.6,286047001.4,N
1643920735.5,286047002.5,N
1643920755.3,286047002.6,N
1643920775.1,286047002.1,N
1643920795.9,286047001.6,N
1643920815.7,286047001.4,N
1643920835.6,286047001.3,N
1643920855.4,286047002.0,N
1643920875.2,286047002.7,N
1643920895.1,286047002.7,N
1643920896.0,286047002.7,N
1643920915.8,286047001.6,N
1643920935.7,286047001.8,N
1643920955.5,286047003.2,Y
1643920975.3,286047000.5,P
1643920995.2,286047000.0,N
1643921015.0,286047002.4,N
1643921015.9,286047002.4,N
1643921035.7,286047002.0,N
1643921055.6,286047002.8,N
1643921075.4,286047001.1,N
1643921095.3,286047001.1,N
1643921115.1,286047000.9,N
1643921116.0,286047000.9,N
1643921135.8,286047000.1,N
1643921155.7,286047001.9,N
1643921175.5,286047000.0,N
1643921195.3,286047002.1,N
1643921215.2,286046999.7,N
1643921235.0,286047000.9,N
1643921235.9,286047000.9,N
1643921255.8,286047000.5,N
1643921275.6,286047000.5,N
1643921295.4,286047000.0,N
1643921315.3,286047000.4,N
1643921335.1,286047002.5,N
1643921355.9,286047002.6,N
1643921375.7,286047002.2,N
1643921395.5,286047002.6,N
1643921415.4,286047001.6,N
1643921435.2,286047002.4,N
1643921455.0,286047001.5,N
1643921455.9,286047001.5,N
1643921475.8,286047001.5,N
1643921495.6,286046999.8,N
1643921515.5,286047000.0,N
1643921535.3,286047000.3,N
1643921555.1,286047000.6,N
1643921575.9,286047000.6,N
1643921595.7,286047000.8,N
1643921615.5,286047001.1,N
1643921635.4,286046999.1,N
1643921655.2,286046997.3,N
1643921675.1,286046997.0,N
1643921676.0,286046997.0,N
1643921695.8,286046998.3,N
1643921715.6,286046998.2,N
1643921735.5,286046998.1,N
1643921755.3,286047000.8,N
1643921775.1,286047000.7,N
1643921795.9,286047000.4,N
1643921815.7,286047000.1,N
1643921835.6,286047002.2,N
1643921855.4,286047001.8,N
1643921875.2,286047002.7,N
1643921895.1,286047002.4,N
1643921896.0,286047002.4,N
1643921915.8,286047000.4,N
1643921935.6,286047000.9,N
1643921955.5,286047001.2,N
1643921975.3,286047000.9,N
1643921995.2,286047000.6,N
